Starlink 3895

operational
NORAD ID: 52583 Int'l Des: 2022-051 Owner: SPXS Country: US Constellation: starlink
LEOCIRCULAR

关于 Starlink 3895

正在加载描述...

实时位置

正在加载3D地球...

即将过境

高度历史

Altitude vs Time

uPlot chart will show altitude changes over time

两行轨道根数

1 52583U 22051AZ 25353.38756511 -.00000671 00000-0 -24088-4 0 9999
2 52583 53.2181 119.6108 0001439 60.0341 300.0794 15.08845637199461
Epoch: Dec 19, 2025 • Age: 14 hours

当前状态

高度 542.4 km
速度 7.59 km/s
星下点 -10.95°S, 26.62°E
发射日期 May 13, 2022
运行时间 3.6 years
类型 internet

技术详情

分类 Payload
质量 297.00 kg
干质量 275.00 kg
总质量 297.00 kg
长度 0.20 m
直径 2.80 m
跨度 9.00 m
形状 Box + pan
制造商 SPXS
平台类型 Starlink
阶段状态 In Orbit
所有者/国家 SPXS/US

大型星座

Loading constellations...